• In Deutschland
  • Länderverzeichnis
  • Für 7 Tage
  • Wassertemperatur
  • Satellitenkarten
  • Wetterkarte
  • Widgets
  • user-avatar
    Anmelden

    Stündliche Wetter Mörfelden-Walldorf

    Heute, 22 Oktober, Sonntag

    Zeit Temperatur Niederschläge Wind Luftdruck Luftfeuchtigkeit
    00:00 +11°C° 0,1 mm 4 m/S 751 mmHg 84%
    01:00 +11°C° 0,1 mm 4 m/S 751 mmHg 83%
    02:00 +10°C° 0 mm 4 m/S 751 mmHg 84%
    03:00 +10°C° 0 mm 4 m/S 751 mmHg 84%
    04:00 +10°C° 0 mm 4 m/S 751 mmHg 85%
    05:00 +8°C° 0 mm 4 m/S 751 mmHg 85%
    06:00 +8°C° 0 mm 4 m/S 751 mmHg 85%
    07:00 +8°C° 0 mm 4 m/S 750 mmHg 84%
    08:00 +8°C° 0,2 mm 5 m/S 751 mmHg 82%
    09:00 +8°C° 0,2 mm 5 m/S 751 mmHg 80%
    10:00 +9°C° 0,2 mm 6 m/S 751 mmHg 78%
    11:00 +9°C° 0,7 mm 5 m/S 751 mmHg 79%
    12:00 +9°C° 0,7 mm 5 m/S 751 mmHg 80%
    13:00 +9°C° 0,7 mm 5 m/S 751 mmHg 81%
    14:00 +9°C° 0,3 mm 5 m/S 751 mmHg 80%
    15:00 +10°C° 0,3 mm 4 m/S 751 mmHg 79%
    16:00 +11°C° 0,3 mm 4 m/S 751 mmHg 78%
    17:00 +10°C° 0 mm 4 m/S 751 mmHg 80%
    18:00 +8°C° 0 mm 4 m/S 751 mmHg 82%
    19:00 +9°C° 0 mm 3 m/S 752 mmHg 84%
    20:00 +8°C° 0 mm 3 m/S 752 mmHg 85%
    21:00 +8°C° 0 mm 3 m/S 752 mmHg 86%
    22:00 +8°C° 0 mm 3 m/S 753 mmHg 87%
    23:00 +7°C° 0 mm 3 m/S 753 mmHg 88%

    Morgen, 23 Oktober, Montag

    Zeit Temperatur Niederschläge Wind Luftdruck Luftfeuchtigkeit
    00:00 +7°C° 0 mm 3 m/S 753 mmHg 88%
    01:00 +7°C° 0 mm 3 m/S 753 mmHg 88%
    02:00 +7°C° 0,1 mm 3 m/S 753 mmHg 88%
    03:00 +7°C° 0,1 mm 4 m/S 753 mmHg 87%
    04:00 +7°C° 0,1 mm 4 m/S 753 mmHg 87%
    05:00 +7°C° 0 mm 4 m/S 753 mmHg 88%
    06:00 +6°C° 0 mm 4 m/S 754 mmHg 88%
    07:00 +7°C° 0 mm 3 m/S 754 mmHg 89%
    08:00 +8°C° 0 mm 3 m/S 754 mmHg 87%
    09:00 +8°C° 0 mm 4 m/S 754 mmHg 84%
    10:00 +10°C° 0 mm 4 m/S 755 mmHg 82%
    11:00 +10°C° 0,1 mm 4 m/S 755 mmHg 79%
    12:00 +11°C° 0,1 mm 4 m/S 755 mmHg 77%
    13:00 +12°C° 0,1 mm 4 m/S 755 mmHg 74%
    14:00 +12°C° 0,1 mm 4 m/S 755 mmHg 75%
    15:00 +12°C° 0,1 mm 3 m/S 755 mmHg 76%
    16:00 +12°C° 0,1 mm 3 m/S 755 mmHg 77%
    17:00 +11°C° 0,1 mm 3 m/S 755 mmHg 80%
    18:00 +11°C° 0,1 mm 3 m/S 756 mmHg 83%
    19:00 +10°C° 0,1 mm 3 m/S 756 mmHg 87%
    20:00 +10°C° 0,5 mm 3 m/S 756 mmHg 88%
    21:00 +10°C° 0,5 mm 3 m/S 756 mmHg 90%
    22:00 +10°C° 0,5 mm 2 m/S 756 mmHg 91%
    23:00 +10°C° 0,4 mm 2 m/S 756 mmHg 91%

    übermorgen, 24 Oktober, Dienstag

    Zeit Temperatur Niederschläge Wind Luftdruck Luftfeuchtigkeit
    00:00 +10°C° 0,4 mm 2 m/S 756 mmHg 92%
    01:00 +12°C° 0,4 mm 2 m/S 756 mmHg 92%
    02:00 +12°C° 0,2 mm 2 m/S 756 mmHg 93%
    03:00 +12°C° 0,2 mm 2 m/S 756 mmHg 93%
    04:00 +12°C° 0,2 mm 2 m/S 756 mmHg 93%
    05:00 +12°C° 0,2 mm 2 m/S 756 mmHg 93%
    06:00 +12°C° 0,2 mm 2 m/S 756 mmHg 94%
    07:00 +12°C° 0,2 mm 2 m/S 756 mmHg 94%
    08:00 +12°C° 0,1 mm 2 m/S 756 mmHg 93%
    09:00 +13°C° 0,1 mm 2 m/S 757 mmHg 92%
    10:00 +13°C° 0,1 mm 2 m/S 757 mmHg 92%
    11:00 +14°C° 0 mm 2 m/S 757 mmHg 89%
    12:00 +15°C° 0 mm 2 m/S 757 mmHg 86%
    13:00 +16°C° 0 mm 2 m/S 757 mmHg 83%
    14:00 +16°C° 0 mm 2 m/S 757 mmHg 83%
    15:00 +16°C° 0 mm 2 m/S 757 mmHg 84%
    16:00 +16°C° 0 mm 2 m/S 757 mmHg 85%
    17:00 +16°C° 0 mm 2 m/S 757 mmHg 87%
    18:00 +15°C° 0 mm 2 m/S 758 mmHg 90%
    19:00 +14°C° 0 mm 2 m/S 758 mmHg 92%
    20:00 +14°C° 0 mm 2 m/S 758 mmHg 93%
    21:00 +14°C° 0 mm 2 m/S 758 mmHg 93%
    22:00 +14°C° 0 mm 2 m/S 758 mmHg 94%
    23:00 +14°C° 0 mm 2 m/S 758 mmHg 94%

    25 Oktober, Mittwoch

    Zeit Temperatur Niederschläge Wind Luftdruck Luftfeuchtigkeit
    00:00 +14°C° 0 mm 2 m/S 758 mmHg 95%
    01:00 +14°C° 0 mm 1 m/S 758 mmHg 95%
    02:00 +14°C° 0 mm 1 m/S 758 mmHg 95%
    03:00 +14°C° 0 mm 1 m/S 758 mmHg 95%
    04:00 +14°C° 0 mm 1 m/S 758 mmHg 95%
    05:00 +14°C° 0 mm 1 m/S 758 mmHg 95%
    06:00 +13°C° 0 mm 1 m/S 758 mmHg 95%
    07:00 +13°C° 0 mm 1 m/S 758 mmHg 95%
    08:00 +14°C° 0 mm 1 m/S 758 mmHg 92%
    09:00 +15°C° 0 mm 1 m/S 758 mmHg 88%
    10:00 +16°C° 0 mm 2 m/S 759 mmHg 84%
    11:00 +17°C° 0 mm 2 m/S 758 mmHg 80%
    12:00 +18°C° 0 mm 2 m/S 758 mmHg 75%
    13:00 +19°C° 0 mm 2 m/S 758 mmHg 70%
    14:00 +19°C° 0 mm 2 m/S 758 mmHg 71%
    15:00 +19°C° 0 mm 2 m/S 758 mmHg 72%
    16:00 +20°C° 0 mm 1 m/S 757 mmHg 73%
    17:00 +19°C° 0 mm 1 m/S 758 mmHg 76%
    18:00 +18°C° 0 mm 1 m/S 758 mmHg 80%
    19:00 +16°C° 0 mm 1 m/S 758 mmHg 83%
    20:00 +15°C° 0 mm 1 m/S 758 mmHg 84%
    21:00 +15°C° 0 mm 1 m/S 758 mmHg 85%
    22:00 +15°C° 0 mm 1 m/S 759 mmHg 85%
    23:00 +14°C° 0 mm 1 m/S 759 mmHg 86%

    26 Oktober, Donnerstag

    Zeit Temperatur Niederschläge Wind Luftdruck Luftfeuchtigkeit
    00:00 +14°C° 0 mm 1 m/S 759 mmHg 87%
    01:00 +14°C° 0 mm 1 m/S 759 mmHg 88%
    02:00 +13°C° 0 mm 1 m/S 759 mmHg 89%
    03:00 +13°C° 0 mm 1 m/S 759 mmHg 89%
    04:00 +13°C° 0 mm 1 m/S 759 mmHg 90%
    05:00 +13°C° 0 mm 1 m/S 759 mmHg 90%
    06:00 +12°C° 0 mm 1 m/S 759 mmHg 90%
    07:00 +12°C° 0 mm 1 m/S 759 mmHg 91%
    08:00 +13°C° 0 mm 1 m/S 759 mmHg 86%
    09:00 +15°C° 0 mm 1 m/S 759 mmHg 80%
    10:00 +16°C° 0 mm 1 m/S 759 mmHg 75%
    11:00 +18°C° 0 mm 1 m/S 759 mmHg 71%
    12:00 +18°C° 0 mm 2 m/S 759 mmHg 66%
    13:00 +20°C° 0 mm 2 m/S 759 mmHg 62%
    14:00 +19°C° 0 mm 2 m/S 758 mmHg 64%
    15:00 +19°C° 0 mm 2 m/S 758 mmHg 67%
    16:00 +20°C° 0 mm 1 m/S 758 mmHg 69%
    17:00 +19°C° 0 mm 1 m/S 758 mmHg 74%
    18:00 +16°C° 0 mm 1 m/S 758 mmHg 80%
    19:00 +15°C° 0 mm 1 m/S 758 mmHg 85%
    20:00 +15°C° 0 mm 1 m/S 758 mmHg 87%
    21:00 +14°C° 0 mm 1 m/S 758 mmHg 88%
    22:00 +14°C° 0 mm 1 m/S 758 mmHg 90%
    23:00 +13°C° 0 mm 1 m/S 757 mmHg 91%

    27 Oktober, Freitag

    Zeit Temperatur Niederschläge Wind Luftdruck Luftfeuchtigkeit
    00:00 +13°C° 0 mm 1 m/S 757 mmHg 92%
    01:00 +13°C° 0 mm 1 m/S 757 mmHg 93%
    02:00 +13°C° 0 mm 1 m/S 756 mmHg 93%
    03:00 +13°C° 0 mm 1 m/S 756 mmHg 93%
    04:00 +12°C° 0 mm 2 m/S 756 mmHg 94%
    05:00 +12°C° 0 mm 2 m/S 756 mmHg 93%
    06:00 +12°C° 0 mm 2 m/S 756 mmHg 93%
    07:00 +12°C° 0 mm 2 m/S 756 mmHg 93%
    08:00 +13°C° 0 mm 2 m/S 756 mmHg 89%
    09:00 +13°C° 0 mm 3 m/S 756 mmHg 85%
    10:00 +13°C° 0 mm 3 m/S 757 mmHg 81%
    11:00 +14°C° 0 mm 3 m/S 757 mmHg 78%
    12:00 +14°C° 0 mm 3 m/S 756 mmHg 76%
    13:00 +16°C° 0 mm 3 m/S 756 mmHg 74%
    14:00 +16°C° 0 mm 3 m/S 756 mmHg 74%
    15:00 +16°C° 0 mm 3 m/S 756 mmHg 74%
    16:00 +14°C° 0 mm 3 m/S 756 mmHg 73%
    17:00 +14°C° 0 mm 3 m/S 756 mmHg 76%
    18:00 +14°C° 0 mm 2 m/S 756 mmHg 79%
    19:00 +13°C° 0 mm 2 m/S 756 mmHg 82%
    20:00 +12°C° 0 mm 1 m/S 756 mmHg 84%
    21:00 +11°C° 0 mm 1 m/S 757 mmHg 86%
    22:00 +11°C° 0 mm 1 m/S 757 mmHg 89%
    23:00 +11°C° 0 mm 1 m/S 756 mmHg 90%
    Mehr zeigen